Find Local Weather

World > North America > United States > Montana

Thompson Falls, Montana Regional Weather

Lat: 47.60N, Lon: 115.34W
Wx Zone: MTZ004
Feedback

Thompson Falls, MT Regional Weather

Expires:201903260600;;351354
ASUS45 KTFX 260510
RWRMT 
MONTANA REGIONAL WEATHER ROUNDUP
NATIONAL WEATHER SERVICE GREAT FALLS MT
1100 PM MDT MON MAR 25 2019

NOTE: "FAIR" INDICATES FEW OR NO CLOUDS BELOW 12000 FEET WITH NO
SIGNIFICANT WEATHER AND/OR OBSTRUCTIONS TO VISIBILITY.


MTZ001>007-043-260600-
WEST OF THE DIVIDE
  
CITY           SKY/WX    TMP DP  RH WIND       PRES   REMARKS
KALISPELL      FAIR      33  27  78 CALM      29.96S                  
MISSOULA       FAIR      43  27  53 S10       29.98S                  
BUTTE          FAIR      41  22  46 W3        30.09S                  
MULLAN PASS    FAIR      38  17  42 VRB5      29.95F                  
ANACONDA         N/A     39  27  60 SE12      30.05F WCI  32          
DEER LODGE       N/A     39  28  65 S12       30.06S WCI  32          
$$


SKY/WX - Weather  TMP - Temperature  DP - Dew Point  RH - Relative Humidity
WIND - Wind Direction/Speed PRES - Barometric Pressure VSB - Visibility
WCI - Wind Chill Index E13G22 Wind - East Wind 13 mph/Gusts of 22 mph